Fowler, IL

3:07 AM CST on February 10, 2016 (GMT -0600)
Quincy Regional-Baldwin

Weather History for KUIN - June, 2013

Change the Weather History Date:

Friday, June 28, 2013

  Actual Average Record
Temperature  
Mean Temperature 78 °F 75 °F  
Max Temperature 87 °F 85 °F 104 °F (2012)
Min Temperature 69 °F 66 °F 53 °F (1968)
Degree Days  
Heating Degree Days 0 0  
Month to date heating degree days 12 14  
Since 1 June heating degree days 12 14  
Since 1 July heating degree days 5638 5580  
Cooling Degree Days 13 10  
Month to date cooling degree days 247 208  
Year to date cooling degree days 359 294  
Since 1 June cooling degree days 247 208  
Growing Degree Days 28 (Base 50)    
Moisture  
Dew Point 59 °F    
Average Humidity 58    
Maximum Humidity 84    
Minimum Humidity 32    
Precipitation  
Precipitation 0.00 in 0.12 in 3.01 in (1902)
Month to date precipitation 1.45 3.75  
Year to date precipitation 26.69 17.84  
Sea Level Pressure  
Sea Level Pressure 29.77 in    
Wind  
Wind Speed 13 mph (WNW)    
Max Wind Speed 28 mph    
Max Gust Speed 36 mph    
Visibility 10 miles    
Events      
T = Trace of Precipitation, MM = Missing Value Source: NWS Daily Summary

Daily Weather History Graph

Daily Weather History Graph

Search for Another Location

Airport or City:

Trip Planner

Search our weather history database for the weather conditions in past years. The results will help you decide how hot, cold, wet, or windy it might be!

Date:

Astronomy

Jun. 28, 2013 Rise Set
Actual Time 5:38 AM CDT 8:37 PM CDT
Civil Twilight 5:05 AM CDT 9:10 PM CDT
Nautical Twilight 4:24 AM CDT 9:51 PM CDT
Astronomical Twilight 3:36 AM CDT 10:39 PM CDT
Moon No Moon Rise 11:46 AM CDT (6/28)
Length of Visible Light 16h 04m
Length of Day
14h 58m
Waning Gibbous, 66% of the Moon is Illuminated
Jun 28
Waning Gibbous
Jun 29
Last Quarter
Jul 8
New
Jul 15
First Quarter
Jul 22
Full

Hourly Weather History & Observations

Time (CDT) Temp. Heat Index Dew Point Humidity Pressure Visibility Wind Dir Wind Speed Gust Speed Precip Events Conditions
12:54 AM 75.0 °F - 66.0 °F 73% 29.83 in 10.0 mi West 5.8 mph - N/A   Clear
1:54 AM 73.9 °F - 66.9 °F 79% 29.82 in 10.0 mi WNW 6.9 mph - N/A   Clear
2:54 AM 72.0 °F - 66.0 °F 81% 29.81 in 10.0 mi WNW 5.8 mph - N/A   Clear
3:54 AM 71.1 °F - 64.9 °F 81% 29.80 in 10.0 mi WNW 8.1 mph - N/A   Clear
4:54 AM 69.1 °F - 64.9 °F 87% 29.80 in 10.0 mi West 5.8 mph - N/A   Clear
5:54 AM 69.1 °F - 64.0 °F 84% 29.81 in 10.0 mi West 6.9 mph - N/A   Clear
6:54 AM 72.0 °F - 64.0 °F 76% 29.81 in 10.0 mi WNW 9.2 mph - N/A   Clear
7:54 AM 73.9 °F - 64.0 °F 71% 29.81 in 10.0 mi West 4.6 mph - N/A   Scattered Clouds
8:54 AM 73.9 °F - 64.0 °F 71% 29.81 in 10.0 mi WNW 9.2 mph - N/A   Mostly Cloudy
9:54 AM 79.0 °F - 64.9 °F 62% 29.80 in 10.0 mi NW 12.7 mph - N/A   Clear
10:54 AM 82.0 °F 82.7 °F 61.0 °F 49% 29.80 in 10.0 mi NW 13.8 mph 23.0 mph N/A   Clear
11:54 AM 84.0 °F 83.8 °F 59.0 °F 43% 29.80 in 10.0 mi NNW 19.6 mph 27.6 mph N/A   Clear
12:54 PM 84.9 °F 83.7 °F 55.9 °F 37% 29.79 in 10.0 mi NW 18.4 mph 26.5 mph N/A   Clear
1:54 PM 86.0 °F 84.0 °F 53.1 °F 32% 29.77 in 10.0 mi NW 20.7 mph 28.8 mph N/A   Clear
2:54 PM 86.0 °F 84.0 °F 53.1 °F 32% 29.76 in 10.0 mi NW 25.3 mph 33.4 mph N/A   Clear
3:54 PM 86.0 °F 84.0 °F 53.1 °F 32% 29.75 in 10.0 mi NW 20.7 mph 26.5 mph N/A   Clear
4:54 PM 84.9 °F 83.2 °F 53.1 °F 33% 29.74 in 10.0 mi NW 23.0 mph 29.9 mph N/A   Mostly Cloudy
5:54 PM 84.9 °F 83.2 °F 53.1 °F 33% 29.72 in 10.0 mi NW 21.9 mph 29.9 mph N/A   Partly Cloudy
6:54 PM 82.9 °F 81.9 °F 54.0 °F 37% 29.71 in 10.0 mi NW 15.0 mph 27.6 mph N/A   Clear
7:54 PM 81.0 °F 80.4 °F 53.1 °F 38% 29.71 in 10.0 mi NW 13.8 mph - N/A   Scattered Clouds
8:54 PM 77.0 °F - 54.0 °F 45% 29.72 in 10.0 mi NW 8.1 mph - N/A   Scattered Clouds
9:54 PM 75.0 °F - 55.0 °F 50% 29.72 in 10.0 mi WNW 8.1 mph - N/A   Mostly Cloudy
10:54 PM 75.0 °F - 55.9 °F 51% 29.72 in 10.0 mi NW 9.2 mph - N/A   Scattered Clouds
11:54 PM 73.0 °F - 55.9 °F 55% 29.71 in 10.0 mi NW 9.2 mph - N/A   Clear